Location: Ch�tillon
(48.8024°N, 2.2935°E)
Time: 04:56:28
(UTC+00:00)

RS-15 - Pass Details

Date: 05 July 2022
Orbit: 1881 x 2163 km, 64.8° (Epoch: 08 August)

Event Time Altitude Azimuth Distance (km) Brightness Sun altitude
Rises 22:54:21 0° 321° (NW) 5,700 11.7 -17.2°
Reaches altitude 10° 22:57:51 10° 319° (NW) 4,693 11.0 -17.3°
Maximum altitude 23:10:02 69° 241° (WSW) 2,254 8.2 -17.8°
Enters shadow 23:18:27 23° 165° (SSE) 3,609 8.8 -18.0°
